Location: Bourg-d�Oueil
(42.8588°N, 0.4991°E)
Time: 20:12:03
(UTC+00:00)

Resurs 01 Rocket - Pass Details

Date: 16 June 2021
Orbit: 635 x 643 km, 97.9° (Epoch: 02 August)

Event Time Altitude Azimuth Distance (km) Brightness Sun altitude
Exits shadow 21:03:41 - 188° (S) 2,287 4.1 -12.5°
Reaches altitude 10° 21:04:23 10° 191° (S) 2,016 3.8 -12.5°
Maximum altitude 21:08:32 41° 262° (W) 924 2.7 -13.0°
Drops below altitude 10° 21:12:43 10° 333° (NNW) 2,030 5.6 -13.5°
Sets 21:15:02 0° 340° (NNW) 2,943 6.5 -13.8°
